STARLINK-11477, 62471

Orbit data source: Space-Track

STARLINK-11477, 62471 is a payload satellite owned by SpaceX/Seattle (US) in LEO that was launched on Tue, 31 Dec 2024 UTC via an FALCON 9 launch vehicle from the Air Force Eastern Test Range (AFETR). Payload-class satellites include a variety of spacecraft equipped with specific instruments for various scientific and technological missions. These include communications satellites like Starlink; space stations such as the ISS; scientific satellites like the Hubble; Earth observation satellites from companies like Planet Labs, Umbra, and HawkEye 360; GPS; miniature CubeSats for education and research; and military/defense satellites.

Loading next visibility...
Identifier
62471, 2024-254K
Orbit
LEO
Country
Flag of USUS
Related business
Manufacturer
SpaceX/Seattle
Mission
Operational Commercial Communications
Bus & Motor
STARLINK V2MD, Unknown motor
Mass
960 kg wet, ~910 kg dry
Launch date (UTC)
2024-12-31 (1 year ago)
Launch vehicle
FALCON 9
Launch site
Air Force Eastern Test Range (AFETR)
Object type
Payload
Rocket body
Debris
Shape & HBR
Box + 2 Pan, 18.1 m
Radar Cross Section
36.964 m², Large (>1 m²)

Expand to show TLE details & history
Last TLE update: 6 hours ago

TLE from 6 hours ago
0 STARLINK-11477
1 62471U 24254K   26034.43582117  .00320694  00000-0  24002-2 0  9997
2 62471  42.9993  69.4810 0001689 281.6661  78.4017 15.70912564 64007
Epoch: 2026-02-03T10:27Z
TLE epoch observation values (Epoch: 2026-02-03T10:27:34.949Z)
Latitude
-0°
Longitude
138.96859°
Altitude
355.83 km
Speed
7.698 km/s
True Right ascension
04h 37m 55s
True Declination
0° 00' 00"
Sunlit
Object was in full shadow at epoch
Visualization orbit readout
Latitude
Unknown
Longitude
Unknown
Altitude
Unknown
Speed
Unknown
Apparent Right ascension
Unknown
Apparent Declination
Unknown
Sunlit
N/A
Visualization observer readout
Local Sidereal Time
18:04:31
Azimuth
Unknown
Elevation
Unknown
Doppler factor
Unknown
Orbital elements
Apogee altitude
359.407 km
Perigee altitude
357.132 km
Semi-major axis
6,736.406 km
Eccentricity
0.00017
Inclination
42.9993°
RAAN
69.481°
Arg. of periapsis
281.6661°
True anomaly
78.42066°
Mean anomaly
78.4017°
Eccentric anomaly
78.41118°
Mean motion
3.92555 °/min
Orbital period
91.71 mins
BSTAR
0.0024002
Loading maneuver chart data...
Computing Atmospheric mass density...
Loading historical data...
Loading historical data...
Loading historical data...
Loading historical data...
Loading historical data...
Loading historical data...
Loading historical data...

Documentation

Showing up to 5 results
|